TimeEST,TemperatureF,Dew PointF,Humidity,Sea Level PressureIn,VisibilityMPH,Wind Direction,Wind SpeedMPH,Gust SpeedMPH,PrecipitationIn,Events,Conditions,WindDirDegrees,DateUTC
12:53 AM,34.0,23.0,64,29.88,10.0,WNW,17.3,31.1,N/A,,Overcast,300,2012-12-22 05:53:00
1:53 AM,33.1,23.0,66,29.91,10.0,WNW,12.7,26.5,N/A,,Overcast,290,2012-12-22 06:53:00
2:53 AM,33.1,23.0,66,29.95,10.0,NW,17.3,25.3,N/A,,Overcast,310,2012-12-22 07:53:00
3:53 AM,33.1,21.9,64,29.98,10.0,NW,17.3,21.9,N/A,,Overcast,310,2012-12-22 08:53:00
4:53 AM,32.0,19.9,61,30.00,10.0,NW,16.1,21.9,N/A,,Overcast,310,2012-12-22 09:53:00
5:53 AM,32.0,19.9,61,30.03,10.0,WNW,10.4,24.2,N/A,,Overcast,290,2012-12-22 10:53:00
6:53 AM,32.0,21.0,64,30.05,10.0,West,12.7,-,N/A,,Overcast,270,2012-12-22 11:53:00
7:53 AM,30.0,23.0,75,30.07,10.0,West,12.7,17.3,N/A,,Overcast,270,2012-12-22 12:53:00
8:03 AM,30.2,23.0,75,30.05,10.0,West,9.2,-,N/A,,Overcast,270,2012-12-22 13:03:00
8:10 AM,30.2,24.8,80,30.05,10.0,West,11.5,-,N/A,,Overcast,270,2012-12-22 13:10:00
8:53 AM,30.0,24.1,79,30.09,10.0,West,11.5,-,N/A,,Overcast,270,2012-12-22 13:53:00
9:53 AM,30.0,23.0,75,30.12,10.0,West,13.8,19.6,N/A,,Overcast,270,2012-12-22 14:53:00
10:53 AM,30.0,23.0,75,30.14,10.0,West,11.5,21.9,N/A,,Overcast,280,2012-12-22 15:53:00
11:53 AM,30.0,21.9,72,30.14,10.0,West,11.5,21.9,N/A,,Overcast,270,2012-12-22 16:53:00
12:53 PM,30.0,21.9,72,30.13,10.0,West,10.4,-,N/A,,Overcast,270,2012-12-22 17:53:00
1:53 PM,30.0,21.0,69,30.13,10.0,West,11.5,19.6,N/A,,Overcast,270,2012-12-22 18:53:00
2:53 PM,30.0,19.9,66,30.13,10.0,West,15.0,-,N/A,,Overcast,280,2012-12-22 19:53:00
3:53 PM,28.9,21.0,72,30.14,10.0,WSW,11.5,-,N/A,,Overcast,240,2012-12-22 20:53:00
4:53 PM,28.0,19.9,72,30.15,10.0,WSW,12.7,18.4,N/A,,Overcast,240,2012-12-22 21:53:00
5:53 PM,28.0,19.9,72,30.15,10.0,WSW,10.4,-,N/A,,Overcast,240,2012-12-22 22:53:00
6:25 PM,26.6,19.4,74,30.12,10.0,WSW,5.8,-,N/A,,Scattered Clouds,240,2012-12-22 23:25:00
6:53 PM,26.1,19.0,75,30.15,10.0,Calm,Calm,-,N/A,,Clear,0,2012-12-22 23:53:00
7:53 PM,24.1,19.0,81,30.16,10.0,Calm,Calm,-,N/A,,Clear,0,2012-12-23 00:53:00
8:53 PM,21.9,19.0,89,30.16,10.0,South,3.5,-,N/A,,Clear,180,2012-12-23 01:53:00
9:53 PM,21.0,18.0,88,30.14,10.0,Calm,Calm,-,N/A,,Clear,0,2012-12-23 02:53:00
10:53 PM,21.0,18.0,88,30.13,10.0,Calm,Calm,-,N/A,,Clear,0,2012-12-23 03:53:00
11:53 PM,19.9,17.1,89,30.12,10.0,South,3.5,-,N/A,,Clear,190,2012-12-23 04:53:00